เมนูเพิ่มเติม

Akame ga Kiru! วันนี้: 0|กระทู้: 59

หน้าต่างใหม่
แสดง: กระทู้ทั้งหมด เวลาทั้งหมด เรียงลำดับ: โพสต์ล่าสุด|สำคัญ|แนะนำโดย ตอบ/ดู โพสล่าสุด
ปักหมุด III ((อ่าน))สำหรับผู้ที่ Donate หรือผู้ที่บริจาค attachment digest  ...23456..13 Admin 25-6-2012 125 ตอบกลับ66654 เยี่ยมชม crazyna 5-8-2017 02:55:44
ปักหมุด III กฎกติกาของเว็ป ThaiZeed attachment digest  ...23456..54 DoGIEP 25-1-2012 537 ตอบกลับ94301 เยี่ยมชม สึนะคุง 1-7-2017 11:30:30
  กระทู้   
Akame ga Kiru! ch.54 pepsi038 4-12-2014 1 ตอบกลับ3605 เยี่ยมชม heyuboys01 7-1-2015 03:45:46
Akame ga Kiru! ch.55 pepsi038 26-12-2014 0 ตอบกลับ2671 เยี่ยมชม pepsi038 26-12-2014 23:52:09
Akame ga Kiru! EXTRA ch.1 pepsi038 30-10-2014 3 ตอบกลับ490 เยี่ยมชม sitthinonidm 30-10-2014 18:46:05
Akame ga Kiru! ch.53 agree pepsi038 23-10-2014 3 ตอบกลับ381 เยี่ยมชม dewpp2000 23-10-2014 17:04:04
Akame ga Kiru! ch.52.5 pepsi038 21-9-2014 0 ตอบกลับ2199 เยี่ยมชม pepsi038 21-9-2014 22:00:54
Akame ga Kiru! ch.52 agree pepsi038 25-8-2014 1 ตอบกลับ315 เยี่ยมชม Starlog 25-8-2014 22:29:33
Akame ga kill ch.23.5 pepsi038 24-8-2014 0 ตอบกลับ300 เยี่ยมชม pepsi038 24-8-2014 13:44:44
Akame ga Kiru! ch.51 attach_img agree pepsi038 12-8-2014 0 ตอบกลับ262 เยี่ยมชม pepsi038 12-8-2014 04:33:29
Akame ga Kiru! ch.50 attach_img pepsi038 12-8-2014 0 ตอบกลับ271 เยี่ยมชม pepsi038 12-8-2014 04:32:09
Akame ga Kiru! ch.49 attach_img pepsi038 12-8-2014 0 ตอบกลับ218 เยี่ยมชม pepsi038 12-8-2014 04:31:14
Akame ga Kiru! ch.48 attach_img pepsi038 12-8-2014 0 ตอบกลับ203 เยี่ยมชม pepsi038 12-8-2014 04:29:37
Akame ga Kiru! ch.47 attach_img pepsi038 12-8-2014 0 ตอบกลับ214 เยี่ยมชม pepsi038 12-8-2014 04:27:43
Akame ga Kiru! ch.46 attach_img pepsi038 12-8-2014 0 ตอบกลับ223 เยี่ยมชม pepsi038 12-8-2014 04:26:41
Akame ga Kiru! ch.45 attach_img pepsi038 12-8-2014 0 ตอบกลับ223 เยี่ยมชม pepsi038 12-8-2014 04:25:34
Akame ga Kiru! ch.44 attach_img pepsi038 12-8-2014 0 ตอบกลับ219 เยี่ยมชม pepsi038 12-8-2014 04:24:19
Akame ga Kiru! ch.43 attach_img pepsi038 12-8-2014 0 ตอบกลับ222 เยี่ยมชม pepsi038 12-8-2014 04:23:23
Akame ga Kiru! ch.42 attach_img pepsi038 12-8-2014 0 ตอบกลับ215 เยี่ยมชม pepsi038 12-8-2014 04:22:17
Akame ga Kiru! ch.41 attach_img pepsi038 12-8-2014 0 ตอบกลับ211 เยี่ยมชม pepsi038 12-8-2014 04:21:04
Akame ga Kiru! ch.40 attach_img pepsi038 12-8-2014 0 ตอบกลับ218 เยี่ยมชม pepsi038 12-8-2014 04:19:13
Akame ga Kiru! ch.39 attach_img pepsi038 12-8-2014 0 ตอบกลับ216 เยี่ยมชม pepsi038 12-8-2014 04:17:46
Akame ga Kiru! ch.38 attach_img pepsi038 12-8-2014 0 ตอบกลับ209 เยี่ยมชม pepsi038 12-8-2014 04:16:21
Akame ga Kiru! ch.37 attach_img pepsi038 12-8-2014 0 ตอบกลับ184 เยี่ยมชม pepsi038 12-8-2014 04:15:00
Akame ga Kiru! ch.36 attach_img pepsi038 12-8-2014 0 ตอบกลับ182 เยี่ยมชม pepsi038 12-8-2014 04:14:06
Akame ga Kiru! ch.35 attach_img pepsi038 12-8-2014 0 ตอบกลับ189 เยี่ยมชม pepsi038 12-8-2014 04:13:17
Akame ga Kiru! ch.34 attach_img pepsi038 12-8-2014 0 ตอบกลับ196 เยี่ยมชม pepsi038 12-8-2014 04:12:12
Akame ga Kiru! ch.33.5 attach_img pepsi038 12-8-2014 0 ตอบกลับ192 เยี่ยมชม pepsi038 12-8-2014 04:10:39
Akame ga Kiru! ch.33 attach_img pepsi038 12-8-2014 0 ตอบกลับ260 เยี่ยมชม pepsi038 12-8-2014 04:10:09
Akame ga Kiru! ch.32 attach_img pepsi038 12-8-2014 0 ตอบกลับ191 เยี่ยมชม pepsi038 12-8-2014 04:08:47
Akame ga Kiru! ch.31 attach_img pepsi038 12-8-2014 0 ตอบกลับ175 เยี่ยมชม pepsi038 12-8-2014 04:06:45
Akame ga Kiru! ch.30 attach_img pepsi038 12-8-2014 0 ตอบกลับ223 เยี่ยมชม pepsi038 12-8-2014 04:05:48
Akame ga Kiru! ch.29 attach_img pepsi038 12-8-2014 0 ตอบกลับ177 เยี่ยมชม pepsi038 12-8-2014 04:04:26
Akame ga Kiru! ch.28 attach_img pepsi038 12-8-2014 0 ตอบกลับ198 เยี่ยมชม pepsi038 12-8-2014 04:02:58
Akame ga Kiru! ch.27 attach_img pepsi038 12-8-2014 0 ตอบกลับ183 เยี่ยมชม pepsi038 12-8-2014 04:01:43
Akame ga Kiru! ch.26 attach_img pepsi038 12-8-2014 0 ตอบกลับ194 เยี่ยมชม pepsi038 12-8-2014 04:00:59
Akame ga Kiru! ch.25 attach_img pepsi038 12-8-2014 0 ตอบกลับ195 เยี่ยมชม pepsi038 12-8-2014 04:00:17
Akame ga Kiru! ch.24 attach_img pepsi038 12-8-2014 0 ตอบกลับ184 เยี่ยมชม pepsi038 12-8-2014 03:59:39
Akame ga Kiru! ch.23 attach_img pepsi038 12-8-2014 0 ตอบกลับ180 เยี่ยมชม pepsi038 12-8-2014 03:58:58
Akame ga Kiru! ch.22 attach_img pepsi038 12-8-2014 0 ตอบกลับ174 เยี่ยมชม pepsi038 12-8-2014 03:58:13
Akame ga Kiru! ch.21 attach_img pepsi038 12-8-2014 0 ตอบกลับ173 เยี่ยมชม pepsi038 12-8-2014 03:57:19
Akame ga Kiru! ch.20 attach_img pepsi038 12-8-2014 0 ตอบกลับ163 เยี่ยมชม pepsi038 12-8-2014 03:56:17
Akame ga Kiru! ch.19 attach_img pepsi038 12-8-2014 0 ตอบกลับ160 เยี่ยมชม pepsi038 12-8-2014 03:46:17
Akame ga Kiru! ch.18 attach_img pepsi038 12-8-2014 0 ตอบกลับ197 เยี่ยมชม pepsi038 12-8-2014 03:41:21
Akame ga Kiru! ch.17 attach_img pepsi038 12-8-2014 0 ตอบกลับ172 เยี่ยมชม pepsi038 12-8-2014 03:39:19
Akame ga Kiru! ch.16 attach_img pepsi038 12-8-2014 0 ตอบกลับ172 เยี่ยมชม pepsi038 12-8-2014 03:37:59
Akame ga Kiru! ch.15 attach_img pepsi038 12-8-2014 0 ตอบกลับ178 เยี่ยมชม pepsi038 12-8-2014 03:36:03
Akame ga Kiru! ch.14 attach_img pepsi038 12-8-2014 0 ตอบกลับ156 เยี่ยมชม pepsi038 12-8-2014 03:34:53
Akame ga Kiru! ch.13 attach_img pepsi038 12-8-2014 0 ตอบกลับ166 เยี่ยมชม pepsi038 12-8-2014 03:33:47
Akame ga Kiru! ch.12 attach_img pepsi038 12-8-2014 0 ตอบกลับ142 เยี่ยมชม pepsi038 12-8-2014 03:32:40
ปิด

ประกาศจาก Admin

ช่วยบริจาคค่า VPS หน่อยจ้า
ช่วยบริจาคค่า VPS หน่อยจ้า
ช่วยหน่อยเนอะ ไม่ได้บังคับนะเออ เเต่สักหน่อยก๊ยังดี ^^

ดู »

ThaiZeed

GMT+7, 24-9-2017 11:59 , Processed in 0.035383 second(s), 7 queries , Xcache On.

Powered by Discuz!

© 2001-2012  Template BY: GDC & 2th